Location: U-46 Planetarium
(42.0300°N, 88.2740°W)
Time: 18:32:34
(UTC-06:00)

ERS-2 - Pass Details

Date: 16 December 2017
Orbit: 500 x 503 km, 98.6° (Epoch: 21 January)

Event Time Altitude Azimuth Distance (km) Brightness Sun altitude
Rises 17:51:03 0° 156° (SSE) 2,579 5.7 -15.7°
Reaches altitude 10° 17:53:08 10° 152° (SSE) 1,700 4.7 -16.1°
Maximum altitude 17:56:44 58° 73° (ENE) 589 2.1 -16.7°
Drops below altitude 10° 18:00:21 10° 354° (N) 1,714 4.7 -17.4°
Sets 18:02:27 0° 351° (N) 2,602 5.7 -17.8°
